DLH33T LSZH-LIMC

Flight info

Callsign DLH33T
Flight time 0h 31m
Altitude 22000
Route VEBIT4W VEBIT T53 GERSA/N0428F230 DCT SOSON DCT DEGAD DCT BASGO Z424 AKASU/N0404F190 Z424 RIXUV RIXUV3H
Aircraft A320/M-VGDW/C

Departure

Time 2026-05-04 11:35
Airport Zürich Airport (LSZH)

Arrival

Time 2026-05-04 12:06
Airport Milan Malpensa International Airport (LIMC)
Time Latitude Longitude Altitude Speed Heading
2026-05-04 09:56 47.46177 8.55551 1397 ft 0 kts 186°
2026-05-04 11:24 47.46215 8.55553 1406 ft 3 kts 175°
2026-05-04 11:25 47.46238 8.55547 1403 ft 3 kts 154°
2026-05-04 11:25 47.46253 8.55530 1404 ft 3 kts 103°
2026-05-04 11:25 47.46254 8.55524 1404 ft 0 kts 96°
2026-05-04 11:28 47.46253 8.55530 1404 ft 4 kts 96°
2026-05-04 11:29 47.46251 8.55564 1380 ft 2 kts 96°
2026-05-04 11:29 47.46248 8.55601 1399 ft 5 kts 96°
2026-05-04 11:29 47.46245 8.55658 1397 ft 5 kts 96°
2026-05-04 11:29 47.46240 8.55713 1398 ft 9 kts 97°
2026-05-04 11:31 47.45842 8.55995 1403 ft 13 kts 102°
2026-05-04 11:33 47.45665 8.56966 1400 ft 6 kts 281°
2026-05-04 11:33 47.45666 8.56947 1399 ft 0 kts 275°
2026-05-04 11:33 47.45667 8.56946 1399 ft 0 kts 275°
2026-05-04 11:34 47.45678 8.56779 1406 ft 49 kts 276°
2026-05-04 11:34 47.45717 8.56286 1405 ft 96 kts 275°
2026-05-04 11:34 47.45807 8.54999 1403 ft 154 kts 276°
2026-05-04 11:34 47.45958 8.53302 1790 ft 170 kts 277°
2026-05-04 11:35 47.46088 8.51565 2559 ft 170 kts 278°
2026-05-04 11:35 47.46209 8.49790 3137 ft 182 kts 278°
2026-05-04 11:35 47.46183 8.47775 3522 ft 206 kts 252°
2026-05-04 11:35 47.45282 8.46020 3784 ft 230 kts 218°
2026-05-04 11:36 47.43973 8.44451 4200 ft 255 kts 221°
2026-05-04 11:36 47.42707 8.42464 4781 ft 273 kts 230°
2026-05-04 11:36 47.41558 8.40233 5624 ft 278 kts 232°
2026-05-04 11:36 47.40425 8.37874 6679 ft 277 kts 233°
2026-05-04 11:37 47.39232 8.35712 7576 ft 275 kts 219°
2026-05-04 11:37 47.37541 8.34357 8486 ft 275 kts 195°
2026-05-04 11:37 47.35630 8.34159 9372 ft 280 kts 172°
2026-05-04 11:37 47.33812 8.35143 10151 ft 287 kts 151°
2026-05-04 11:38 47.32067 8.36770 10519 ft 309 kts 150°
2026-05-04 11:38 47.30184 8.38539 10735 ft 332 kts 150°
2026-05-04 11:38 47.28169 8.40435 10901 ft 355 kts 149°
2026-05-04 11:38 47.26043 8.42435 11354 ft 367 kts 149°
2026-05-04 11:39 47.23876 8.44473 12001 ft 372 kts 149°
2026-05-04 11:39 47.21679 8.46532 12656 ft 377 kts 150°
2026-05-04 11:40 47.06588 8.52827 16369 ft 387 kts 176°
2026-05-04 11:41 47.03900 8.53215 16930 ft 390 kts 176°
2026-05-04 11:41 47.01189 8.53610 17476 ft 393 kts 176°
2026-05-04 11:41 46.98457 8.54003 18057 ft 395 kts 176°
2026-05-04 11:41 46.95714 8.54401 18569 ft 397 kts 176°
2026-05-04 11:42 46.92968 8.54801 19013 ft 400 kts 176°
2026-05-04 11:42 46.90180 8.55201 19465 ft 404 kts 176°
2026-05-04 11:42 46.87377 8.55599 19991 ft 405 kts 176°
2026-05-04 11:42 46.84562 8.55996 20420 ft 407 kts 176°
2026-05-04 11:43 46.81728 8.56402 20874 ft 410 kts 176°
2026-05-04 11:43 46.78881 8.56813 21324 ft 413 kts 176°
2026-05-04 11:43 46.76020 8.57224 21769 ft 414 kts 176°
2026-05-04 11:43 46.73151 8.57632 22014 ft 413 kts 176°
2026-05-04 11:44 46.70283 8.58041 22048 ft 412 kts 176°
2026-05-04 11:44 46.67431 8.58444 22052 ft 410 kts 176°
2026-05-04 11:44 46.64596 8.58847 22053 ft 411 kts 176°
2026-05-04 11:44 46.61741 8.59258 22063 ft 412 kts 176°
2026-05-04 11:45 46.58883 8.59667 22085 ft 414 kts 176°
2026-05-04 11:45 46.56017 8.60076 22084 ft 413 kts 176°
2026-05-04 11:45 46.53160 8.60485 22084 ft 413 kts 176°
2026-05-04 11:45 46.50304 8.60888 22081 ft 411 kts 176°
2026-05-04 11:46 46.47449 8.61078 22085 ft 410 kts 182°
2026-05-04 11:46 46.44600 8.60757 21134 ft 416 kts 190°
2026-05-04 11:46 46.41766 8.59661 20391 ft 424 kts 201°
2026-05-04 11:46 46.39120 8.57788 20160 ft 426 kts 211°
2026-05-04 11:47 46.36599 8.55527 20070 ft 426 kts 212°
2026-05-04 11:47 46.34075 8.53266 20103 ft 428 kts 211°
2026-05-04 11:47 46.31530 8.51004 20108 ft 429 kts 210°
2026-05-04 11:47 46.28826 8.49197 20099 ft 429 kts 200°
2026-05-04 11:48 46.25945 8.48146 20100 ft 430 kts 190°
2026-05-04 11:48 46.22948 8.47869 20008 ft 431 kts 180°
2026-05-04 11:48 46.19975 8.48206 19323 ft 426 kts 176°
2026-05-04 11:48 46.17028 8.48629 18674 ft 422 kts 175°
2026-05-04 11:49 46.14166 8.49059 18544 ft 405 kts 175°
2026-05-04 11:49 46.11425 8.49600 18412 ft 389 kts 170°
2026-05-04 11:49 46.08878 8.50666 18149 ft 377 kts 161°
2026-05-04 11:49 46.06440 8.51988 17675 ft 372 kts 162°
2026-05-04 11:50 46.04025 8.53293 17171 ft 369 kts 162°
2026-05-04 11:50 46.01627 8.54586 17093 ft 368 kts 162°
2026-05-04 11:50 45.99218 8.55882 17117 ft 371 kts 162°
2026-05-04 11:50 45.96800 8.57177 17122 ft 370 kts 162°
2026-05-04 11:51 45.94386 8.58468 17120 ft 370 kts 162°
2026-05-04 11:51 45.91970 8.59766 17124 ft 371 kts 161°
2026-05-04 11:51 45.89639 8.61387 17123 ft 374 kts 152°
2026-05-04 11:51 45.87507 8.63542 17127 ft 377 kts 143°
2026-05-04 11:52 45.85486 8.65926 16796 ft 374 kts 144°
2026-05-04 11:52 45.83478 8.68273 16309 ft 371 kts 144°
2026-05-04 11:52 45.81479 8.70589 15832 ft 368 kts 144°
2026-05-04 11:52 45.79491 8.72885 15375 ft 365 kts 144°
2026-05-04 11:53 45.77516 8.75158 14901 ft 363 kts 144°
2026-05-04 11:53 45.75444 8.77168 14434 ft 358 kts 154°
2026-05-04 11:53 45.73265 8.78844 13969 ft 355 kts 155°
2026-05-04 11:53 45.71088 8.80517 13448 ft 353 kts 154°
2026-05-04 11:55 45.55699 8.89339 11981 ft 327 kts 171°
2026-05-04 11:55 45.53481 8.89939 11621 ft 322 kts 171°
2026-05-04 11:56 45.51265 8.90540 11192 ft 319 kts 171°
2026-05-04 11:56 45.49125 8.91120 10765 ft 316 kts 170°
2026-05-04 11:56 45.46977 8.91702 10417 ft 311 kts 170°
2026-05-04 11:56 45.44896 8.92270 10294 ft 299 kts 170°
2026-05-04 11:57 45.42886 8.92822 10170 ft 288 kts 170°
2026-05-04 11:57 45.40956 8.93349 10121 ft 275 kts 170°
2026-05-04 11:57 45.39106 8.93851 10087 ft 262 kts 170°
2026-05-04 11:57 45.37371 8.94320 9951 ft 252 kts 170°
2026-05-04 11:58 45.35669 8.94779 9751 ft 246 kts 170°
2026-05-04 11:58 45.33973 8.95235 9390 ft 246 kts 170°
2026-05-04 11:58 45.32292 8.95688 9134 ft 244 kts 170°
2026-05-04 11:58 45.30602 8.95763 9127 ft 245 kts 191°
2026-05-04 11:59 45.29061 8.94808 9128 ft 248 kts 216°
2026-05-04 11:59 45.27971 8.92912 9126 ft 254 kts 243°
2026-05-04 11:59 45.27629 8.90429 9138 ft 262 kts 271°
2026-05-04 11:59 45.27975 8.87861 9134 ft 267 kts 284°
2026-05-04 12:00 45.28756 8.85447 9130 ft 271 kts 300°
2026-05-04 12:00 45.29976 8.83390 9134 ft 275 kts 316°
2026-05-04 12:00 45.31550 8.81847 9086 ft 276 kts 332°
2026-05-04 12:00 45.32579 8.81242 8880 ft 276 kts 342°
2026-05-04 12:01 45.33265 8.80988 8760 ft 275 kts 348°
2026-05-04 12:02 45.44792 8.77225 4707 ft 278 kts 349°
2026-05-04 12:03 45.46679 8.76735 4144 ft 273 kts 349°
2026-05-04 12:03 45.48539 8.76251 3420 ft 266 kts 348°
2026-05-04 12:03 45.50318 8.75784 2989 ft 255 kts 347°
2026-05-04 12:03 45.52007 8.75332 2634 ft 236 kts 347°
2026-05-04 12:04 45.53516 8.74919 2349 ft 207 kts 347°
2026-05-04 12:04 45.54875 8.74544 2045 ft 189 kts 347°
2026-05-04 12:04 45.56093 8.74209 1785 ft 168 kts 346°
2026-05-04 12:04 45.57194 8.73908 1612 ft 158 kts 346°
2026-05-04 12:05 45.58262 8.73618 1410 ft 154 kts 346°
2026-05-04 12:05 45.59309 8.73296 1139 ft 150 kts 343°
2026-05-04 12:05 45.60328 8.73020 994 ft 151 kts 348°
2026-05-04 12:05 45.61369 8.72754 752 ft 148 kts 345°
2026-05-04 12:06 45.62302 8.72489 728 ft 111 kts 348°
2026-05-04 12:06 45.62793 8.72353 738 ft 53 kts 348°
2026-05-04 12:06 45.63041 8.72266 742 ft 23 kts 337°
2026-05-04 12:06 45.63151 8.72166 743 ft 9 kts 319°
2026-05-04 12:07 45.63194 8.72113 743 ft 7 kts 319°
2026-05-04 12:07 45.63227 8.72073 744 ft 5 kts 320°
2026-05-04 12:07 45.63256 8.72038 745 ft 10 kts 320°
2026-05-04 12:07 45.63312 8.71954 746 ft 11 kts 296°
2026-05-04 12:08 45.63304 8.71852 748 ft 12 kts 259°
2026-05-04 12:08 45.63286 8.71722 747 ft 15 kts 259°
2026-05-04 12:08 45.63265 8.71573 746 ft 16 kts 258°
2026-05-04 12:08 45.63237 8.71494 744 ft 12 kts 213°
2026-05-04 12:09 45.63168 8.71455 742 ft 0 kts 199°